When you browse on this site, cookies collect data to enhance your experience and personalize the content and advertising you see.
Visit our Privacy Policy to learn more. By continuing to use the site, you agree to this use of cookies and data.
  • In Hungary
  • List of Countries
  • For 7 days
  • Water Temperature
  • Satellite Maps
  • Weather Map
  • News
  • Weather Widgets
  • user-avatar
    Login

    Hourly Weather Arzano

    Today, 11 December, Tuesday

    Time Temperature Precipitation Wind Pressure Humidity
    00:00 +9°C° 0 mm 3 mps 754 mmHg 74%
    01:00 +7°C° 0 mm 4 mps 754 mmHg 75%
    02:00 +8°C° 0.1 mm 3 mps 754 mmHg 75%
    03:00 +8°C° 0.1 mm 3 mps 754 mmHg 76%
    04:00 +8°C° 0.1 mm 3 mps 754 mmHg 76%
    05:00 +7°C° 0 mm 3 mps 755 mmHg 76%
    06:00 +7°C° 0 mm 3 mps 755 mmHg 75%
    07:00 +7°C° 0 mm 3 mps 755 mmHg 75%
    08:00 +8°C° 0 mm 2 mps 755 mmHg 68%
    09:00 +9°C° 0 mm 2 mps 755 mmHg 61%
    10:00 +11°C° 0 mm 1 mps 755 mmHg 55%
    11:00 +12°C° 0.1 mm 1 mps 755 mmHg 51%
    12:00 +12°C° 0.1 mm 1 mps 755 mmHg 46%
    13:00 +13°C° 0.1 mm 1 mps 755 mmHg 42%
    14:00 +13°C° 0.1 mm 1 mps 755 mmHg 45%
    15:00 +12°C° 0.1 mm 1 mps 756 mmHg 47%
    16:00 +11°C° 0.1 mm 0 mps 756 mmHg 50%
    17:00 +11°C° 0.1 mm 1 mps 756 mmHg 54%
    18:00 +10°C° 0.1 mm 1 mps 756 mmHg 57%
    19:00 +8°C° 0.1 mm 2 mps 756 mmHg 61%
    20:00 +8°C° 0 mm 2 mps 757 mmHg 63%
    21:00 +8°C° 0 mm 3 mps 757 mmHg 64%
    22:00 +7°C° 0 mm 3 mps 757 mmHg 66%
    23:00 +7°C° 0 mm 3 mps 757 mmHg 65%

    Tomorrow, 12 December, Wednesday

    Time Temperature Precipitation Wind Pressure Humidity
    00:00 +5°C° 0 mm 3 mps 757 mmHg 64%
    01:00 +5°C° 0 mm 3 mps 757 mmHg 63%
    02:00 +5°C° 0 mm 3 mps 757 mmHg 62%
    03:00 +5°C° 0 mm 3 mps 757 mmHg 61%
    04:00 +4°C° 0 mm 3 mps 757 mmHg 60%
    05:00 +4°C° 0 mm 3 mps 757 mmHg 59%
    06:00 +4°C° 0 mm 3 mps 757 mmHg 59%
    07:00 +4°C° 0 mm 3 mps 757 mmHg 58%
    08:00 +5°C° 0 mm 3 mps 758 mmHg 55%
    09:00 +8°C° 0 mm 3 mps 758 mmHg 52%
    10:00 +9°C° 0 mm 3 mps 758 mmHg 49%
    11:00 +10°C° 0 mm 2 mps 757 mmHg 45%
    12:00 +12°C° 0 mm 2 mps 757 mmHg 41%
    13:00 +12°C° 0 mm 2 mps 757 mmHg 38%
    14:00 +12°C° 0 mm 2 mps 756 mmHg 40%
    15:00 +10°C° 0 mm 2 mps 756 mmHg 42%
    16:00 +10°C° 0 mm 2 mps 756 mmHg 44%
    17:00 +9°C° 0 mm 2 mps 756 mmHg 45%
    18:00 +9°C° 0 mm 3 mps 756 mmHg 45%
    19:00 +8°C° 0 mm 3 mps 756 mmHg 46%
    20:00 +8°C° 0.1 mm 3 mps 756 mmHg 47%
    21:00 +8°C° 0.1 mm 3 mps 756 mmHg 48%
    22:00 +6°C° 0.1 mm 4 mps 755 mmHg 50%
    23:00 +6°C° 0.1 mm 4 mps 755 mmHg 52%

    Day after tomorrow, 13 December, Thursday

    Time Temperature Precipitation Wind Pressure Humidity
    00:00 +6°C° 0.1 mm 4 mps 755 mmHg 54%
    01:00 +6°C° 0.1 mm 4 mps 754 mmHg 55%
    02:00 +7°C° 0.1 mm 3 mps 754 mmHg 57%
    03:00 +7°C° 0.1 mm 3 mps 754 mmHg 59%
    04:00 +7°C° 0.1 mm 3 mps 753 mmHg 60%
    05:00 +7°C° 0 mm 3 mps 753 mmHg 61%
    06:00 +7°C° 0 mm 3 mps 753 mmHg 62%
    07:00 +7°C° 0 mm 3 mps 753 mmHg 63%
    08:00 +8°C° 0 mm 3 mps 752 mmHg 62%
    09:00 +8°C° 0 mm 3 mps 752 mmHg 61%
    10:00 +9°C° 0 mm 3 mps 752 mmHg 60%
    11:00 +10°C° 0.2 mm 3 mps 752 mmHg 61%
    12:00 +10°C° 0.2 mm 2 mps 752 mmHg 61%
    13:00 +12°C° 0.2 mm 2 mps 751 mmHg 62%
    14:00 +12°C° 0.1 mm 2 mps 751 mmHg 66%
    15:00 +10°C° 0.1 mm 2 mps 751 mmHg 70%
    16:00 +10°C° 0.1 mm 2 mps 751 mmHg 75%
    17:00 +10°C° 0 mm 2 mps 751 mmHg 77%
    18:00 +10°C° 0 mm 2 mps 751 mmHg 79%
    19:00 +9°C° 0 mm 2 mps 751 mmHg 81%
    20:00 +9°C° 0.1 mm 2 mps 751 mmHg 83%
    21:00 +9°C° 0.1 mm 2 mps 751 mmHg 84%
    22:00 +9°C° 0.1 mm 2 mps 751 mmHg 86%
    23:00 +9°C° 0.3 mm 2 mps 751 mmHg 87%

    14 December, Friday

    Time Temperature Precipitation Wind Pressure Humidity
    00:00 +9°C° 0.3 mm 2 mps 751 mmHg 88%
    01:00 +9°C° 0.3 mm 2 mps 751 mmHg 89%
    02:00 +9°C° 0.2 mm 2 mps 751 mmHg 90%
    03:00 +9°C° 0.2 mm 2 mps 751 mmHg 90%
    04:00 +9°C° 0.2 mm 2 mps 751 mmHg 90%
    05:00 +9°C° 0.1 mm 2 mps 751 mmHg 90%
    06:00 +9°C° 0.1 mm 2 mps 750 mmHg 89%
    07:00 +9°C° 0.1 mm 3 mps 750 mmHg 89%
    08:00 +10°C° 0 mm 3 mps 750 mmHg 84%
    09:00 +11°C° 0 mm 3 mps 750 mmHg 79%
    10:00 +12°C° 0 mm 3 mps 750 mmHg 74%
    11:00 +13°C° 0 mm 3 mps 750 mmHg 70%
    12:00 +14°C° 0 mm 3 mps 750 mmHg 66%
    13:00 +14°C° 0 mm 3 mps 750 mmHg 62%
    14:00 +14°C° 0.1 mm 3 mps 750 mmHg 65%
    15:00 +13°C° 0.1 mm 3 mps 750 mmHg 68%
    16:00 +13°C° 0.1 mm 3 mps 750 mmHg 71%
    17:00 +12°C° 0.1 mm 3 mps 750 mmHg 74%
    18:00 +12°C° 0.1 mm 3 mps 750 mmHg 77%
    19:00 +11°C° 0.1 mm 3 mps 750 mmHg 80%
    20:00 +11°C° 0 mm 4 mps 750 mmHg 81%
    21:00 +11°C° 0 mm 4 mps 750 mmHg 81%
    22:00 +11°C° 0 mm 4 mps 751 mmHg 82%
    23:00 +10°C° 0.2 mm 4 mps 751 mmHg 82%

    15 December, Saturday

    Time Temperature Precipitation Wind Pressure Humidity
    00:00 +10°C° 0.2 mm 4 mps 750 mmHg 82%
    01:00 +10°C° 0.2 mm 4 mps 750 mmHg 82%
    02:00 +9°C° 0.2 mm 5 mps 750 mmHg 82%
    03:00 +9°C° 0.2 mm 5 mps 750 mmHg 82%
    04:00 +9°C° 0.2 mm 5 mps 750 mmHg 83%
    05:00 +9°C° 0.1 mm 5 mps 751 mmHg 81%
    06:00 +9°C° 0.1 mm 6 mps 751 mmHg 79%
    07:00 +9°C° 0.1 mm 6 mps 751 mmHg 78%
    08:00 +9°C° 0 mm 6 mps 752 mmHg 75%
    09:00 +9°C° 0 mm 5 mps 752 mmHg 71%
    10:00 +9°C° 0 mm 5 mps 753 mmHg 68%
    11:00 +9°C° 0 mm 5 mps 753 mmHg 65%
    12:00 +9°C° 0 mm 5 mps 753 mmHg 63%
    13:00 +9°C° 0 mm 5 mps 753 mmHg 60%
    14:00 +9°C° 0 mm 5 mps 753 mmHg 60%
    15:00 +9°C° 0 mm 5 mps 754 mmHg 60%
    16:00 +8°C° 0 mm 5 mps 754 mmHg 60%
    17:00 +7°C° 0 mm 5 mps 755 mmHg 63%
    18:00 +6°C° 0 mm 5 mps 755 mmHg 66%
    19:00 +5°C° 0 mm 5 mps 756 mmHg 69%
    20:00 +5°C° 0 mm 4 mps 756 mmHg 69%
    21:00 +5°C° 0 mm 4 mps 757 mmHg 69%
    22:00 +5°C° 0 mm 4 mps 757 mmHg 69%
    23:00 +5°C° 0 mm 4 mps 757 mmHg 70%

    16 December, Sunday

    Time Temperature Precipitation Wind Pressure Humidity
    00:00 +4°C° 0 mm 4 mps 758 mmHg 70%
    01:00 +4°C° 0 mm 4 mps 758 mmHg 71%
    02:00 +4°C° 0 mm 4 mps 758 mmHg 71%
    03:00 +4°C° 0 mm 3 mps 758 mmHg 71%
    04:00 +4°C° 0 mm 3 mps 758 mmHg 71%
    05:00 +4°C° 0 mm 3 mps 758 mmHg 69%
    06:00 +4°C° 0 mm 3 mps 759 mmHg 68%
    07:00 +4°C° 0 mm 3 mps 759 mmHg 66%
    08:00 +5°C° 0 mm 3 mps 760 mmHg 62%
    09:00 +7°C° 0 mm 3 mps 760 mmHg 59%
    10:00 +9°C° 0 mm 3 mps 760 mmHg 55%
    11:00 +10°C° 0 mm 3 mps 760 mmHg 50%
    12:00 +12°C° 0 mm 2 mps 760 mmHg 46%
    13:00 +13°C° 0 mm 2 mps 760 mmHg 41%
    14:00 +12°C° 0 mm 2 mps 760 mmHg 44%
    15:00 +12°C° 0 mm 2 mps 760 mmHg 46%
    16:00 +10°C° 0 mm 2 mps 760 mmHg 49%
    17:00 +9°C° 0 mm 2 mps 760 mmHg 52%
    18:00 +9°C° 0 mm 2 mps 761 mmHg 54%
    19:00 +8°C° 0 mm 2 mps 761 mmHg 57%
    20:00 +8°C° 0 mm 2 mps 761 mmHg 57%
    21:00 +7°C° 0 mm 2 mps 761 mmHg 57%
    22:00 +7°C° 0 mm 2 mps 761 mmHg 57%
    23:00 +8°C° 0 mm 1 mps 761 mmHg 56%
    Show more